When you browse on this site, cookies collect data to enhance your experience and personalize the content and advertising you see.
Visit our Privacy Policy to learn more. By continuing to use the site, you agree to this use of cookies and data.
  • En España
  • Lista de países
  • Para 7 días
  • Temperatura del agua
  • Mapa Satelital
  • El tiempo en el mapa
  • Informadores
  • user-avatar
    Iniciar sesión

    Tiempo cada hora Khulna

    Hoy, 16 Enero, Miércoles

    Tiempo Temperatura Precipitaciones Viento Presión Humedad
    00:00 +19°C° 0 mm 2 mps 762 mmHg 49%
    01:00 +18°C° 0 mm 2 mps 762 mmHg 49%
    02:00 +18°C° 0 mm 2 mps 762 mmHg 49%
    03:00 +17°C° 0 mm 2 mps 762 mmHg 49%
    04:00 +17°C° 0 mm 2 mps 762 mmHg 49%
    05:00 +16°C° 0 mm 2 mps 762 mmHg 50%
    06:00 +15°C° 0 mm 2 mps 762 mmHg 54%
    07:00 +17°C° 0 mm 2 mps 762 mmHg 50%
    08:00 +19°C° 0 mm 2 mps 762 mmHg 45%
    09:00 +20°C° 0 mm 3 mps 763 mmHg 40%
    10:00 +22°C° 0 mm 3 mps 762 mmHg 35%
    11:00 +25°C° 0 mm 3 mps 762 mmHg 29%
    12:00 +26°C° 0 mm 2 mps 762 mmHg 22%
    13:00 +27°C° 0 mm 2 mps 762 mmHg 22%
    14:00 +28°C° 0 mm 2 mps 761 mmHg 21%
    15:00 +28°C° 0 mm 1 mps 760 mmHg 20%
    16:00 +27°C° 0 mm 1 mps 760 mmHg 23%
    17:00 +25°C° 0 mm 1 mps 760 mmHg 26%
    18:00 +23°C° 0 mm 1 mps 760 mmHg 30%
    19:00 +22°C° 0 mm 1 mps 760 mmHg 31%
    20:00 +22°C° 0 mm 1 mps 760 mmHg 33%
    21:00 +21°C° 0 mm 1 mps 760 mmHg 34%
    22:00 +19°C° 0 mm 2 mps 760 mmHg 34%
    23:00 +19°C° 0 mm 2 mps 760 mmHg 35%

    Mañana, 17 Enero, Jueves

    Tiempo Temperatura Precipitaciones Viento Presión Humedad
    00:00 +18°C° 0 mm 2 mps 760 mmHg 35%
    01:00 +18°C° 0 mm 2 mps 760 mmHg 36%
    02:00 +17°C° 0 mm 2 mps 760 mmHg 37%
    03:00 +17°C° 0 mm 2 mps 760 mmHg 37%
    04:00 +17°C° 0 mm 2 mps 760 mmHg 38%
    05:00 +16°C° 0 mm 2 mps 760 mmHg 39%
    06:00 +16°C° 0 mm 2 mps 760 mmHg 40%
    07:00 +18°C° 0 mm 2 mps 760 mmHg 38%
    08:00 +19°C° 0 mm 2 mps 761 mmHg 36%
    09:00 +21°C° 0 mm 2 mps 761 mmHg 33%
    10:00 +24°C° 0 mm 1 mps 761 mmHg 31%
    11:00 +26°C° 0 mm 1 mps 761 mmHg 29%
    12:00 +28°C° 0 mm 1 mps 761 mmHg 27%
    13:00 +29°C° 0 mm 1 mps 760 mmHg 25%
    14:00 +29°C° 0 mm 1 mps 759 mmHg 23%
    15:00 +29°C° 0 mm 1 mps 759 mmHg 22%
    16:00 +28°C° 0 mm 1 mps 759 mmHg 24%
    17:00 +27°C° 0 mm 1 mps 759 mmHg 26%
    18:00 +25°C° 0 mm 1 mps 759 mmHg 28%
    19:00 +24°C° 0 mm 1 mps 759 mmHg 30%
    20:00 +23°C° 0 mm 1 mps 760 mmHg 32%
    21:00 +21°C° 0 mm 2 mps 760 mmHg 35%
    22:00 +21°C° 0 mm 2 mps 760 mmHg 37%
    23:00 +21°C° 0 mm 1 mps 760 mmHg 40%

    Pasado mañana, 18 Enero, Viernes

    Tiempo Temperatura Precipitaciones Viento Presión Humedad
    00:00 +20°C° 0 mm 1 mps 760 mmHg 43%
    01:00 +20°C° 0 mm 1 mps 760 mmHg 45%
    02:00 +20°C° 0 mm 1 mps 760 mmHg 47%
    03:00 +19°C° 0 mm 1 mps 760 mmHg 49%
    04:00 +19°C° 0 mm 1 mps 760 mmHg 51%
    05:00 +19°C° 0 mm 1 mps 760 mmHg 52%
    06:00 +19°C° 0 mm 1 mps 760 mmHg 53%
    07:00 +19°C° 0 mm 2 mps 761 mmHg 50%
    08:00 +21°C° 0 mm 2 mps 762 mmHg 46%
    09:00 +23°C° 0 mm 2 mps 762 mmHg 42%
    10:00 +25°C° 0 mm 2 mps 762 mmHg 38%
    11:00 +27°C° 0 mm 2 mps 762 mmHg 33%
    12:00 +29°C° 0 mm 2 mps 761 mmHg 29%
    13:00 +29°C° 0 mm 2 mps 760 mmHg 27%
    14:00 +30°C° 0 mm 2 mps 760 mmHg 25%
    15:00 +30°C° 0 mm 2 mps 759 mmHg 24%
    16:00 +29°C° 0 mm 2 mps 759 mmHg 26%
    17:00 +27°C° 0 mm 2 mps 759 mmHg 29%
    18:00 +26°C° 0 mm 2 mps 759 mmHg 32%
    19:00 +25°C° 0 mm 2 mps 760 mmHg 34%
    20:00 +24°C° 0 mm 2 mps 760 mmHg 37%
    21:00 +23°C° 0 mm 2 mps 761 mmHg 39%
    22:00 +21°C° 0 mm 2 mps 761 mmHg 41%
    23:00 +21°C° 0 mm 2 mps 760 mmHg 43%

    19 Enero, Sábado

    Tiempo Temperatura Precipitaciones Viento Presión Humedad
    00:00 +20°C° 0 mm 2 mps 760 mmHg 45%
    01:00 +20°C° 0 mm 2 mps 760 mmHg 46%
    02:00 +19°C° 0 mm 2 mps 760 mmHg 48%
    03:00 +19°C° 0 mm 2 mps 760 mmHg 50%
    04:00 +18°C° 0 mm 2 mps 760 mmHg 51%
    05:00 +18°C° 0 mm 2 mps 760 mmHg 52%
    06:00 +18°C° 0 mm 2 mps 760 mmHg 53%
    07:00 +19°C° 0 mm 2 mps 761 mmHg 49%
    08:00 +21°C° 0 mm 2 mps 762 mmHg 45%
    09:00 +23°C° 0 mm 2 mps 762 mmHg 42%
    10:00 +25°C° 0 mm 2 mps 762 mmHg 37%
    11:00 +27°C° 0 mm 2 mps 762 mmHg 33%
    12:00 +29°C° 0 mm 2 mps 761 mmHg 28%
    13:00 +29°C° 0 mm 2 mps 761 mmHg 26%
    14:00 +30°C° 0 mm 2 mps 760 mmHg 24%
    15:00 +30°C° 0 mm 3 mps 759 mmHg 21%
    16:00 +29°C° 0 mm 2 mps 759 mmHg 24%
    17:00 +27°C° 0 mm 2 mps 760 mmHg 27%
    18:00 +25°C° 0 mm 2 mps 760 mmHg 29%
    19:00 +25°C° 0 mm 2 mps 760 mmHg 32%
    20:00 +24°C° 0 mm 2 mps 761 mmHg 34%
    21:00 +23°C° 0 mm 2 mps 761 mmHg 37%
    22:00 +21°C° 0 mm 2 mps 761 mmHg 38%
    23:00 +21°C° 0 mm 2 mps 761 mmHg 39%

    20 Enero, Domingo

    Tiempo Temperatura Precipitaciones Viento Presión Humedad
    00:00 +20°C° 0 mm 2 mps 761 mmHg 41%
    01:00 +20°C° 0 mm 2 mps 761 mmHg 41%
    02:00 +19°C° 0 mm 2 mps 760 mmHg 41%
    03:00 +19°C° 0 mm 2 mps 760 mmHg 41%
    04:00 +18°C° 0 mm 2 mps 760 mmHg 42%
    05:00 +18°C° 0 mm 2 mps 760 mmHg 43%
    06:00 +19°C° 0 mm 1 mps 761 mmHg 44%
    07:00 +19°C° 0 mm 2 mps 761 mmHg 41%
    08:00 +21°C° 0 mm 2 mps 762 mmHg 39%
    09:00 +24°C° 0 mm 2 mps 763 mmHg 36%
    10:00 +25°C° 0 mm 2 mps 762 mmHg 32%
    11:00 +27°C° 0 mm 3 mps 762 mmHg 27%
    12:00 +29°C° 0 mm 3 mps 762 mmHg 23%
    13:00 +29°C° 0 mm 3 mps 761 mmHg 22%
    14:00 +30°C° 0 mm 3 mps 760 mmHg 21%
    15:00 +30°C° 0 mm 4 mps 759 mmHg 20%
    16:00 +29°C° 0 mm 3 mps 759 mmHg 23%
    17:00 +27°C° 0 mm 2 mps 760 mmHg 26%
    18:00 +25°C° 0 mm 2 mps 760 mmHg 29%
    19:00 +24°C° 0 mm 2 mps 760 mmHg 31%
    20:00 +24°C° 0 mm 2 mps 761 mmHg 34%
    21:00 +23°C° 0 mm 1 mps 761 mmHg 36%
    22:00 +22°C° 0 mm 1 mps 761 mmHg 38%
    23:00 +22°C° 0 mm 1 mps 761 mmHg 39%

    21 Enero, Lunes

    Tiempo Temperatura Precipitaciones Viento Presión Humedad
    00:00 +21°C° 0 mm 1 mps 761 mmHg 40%
    01:00 +21°C° 0 mm 1 mps 761 mmHg 41%
    02:00 +20°C° 0 mm 1 mps 761 mmHg 41%
    03:00 +20°C° 0 mm 1 mps 760 mmHg 41%
    04:00 +19°C° 0 mm 1 mps 760 mmHg 42%
    05:00 +19°C° 0 mm 1 mps 761 mmHg 42%
    06:00 +19°C° 0 mm 1 mps 761 mmHg 42%
    07:00 +19°C° 0 mm 2 mps 761 mmHg 39%
    08:00 +21°C° 0 mm 2 mps 762 mmHg 36%
    09:00 +24°C° 0 mm 2 mps 763 mmHg 34%
    10:00 +26°C° 0 mm 2 mps 762 mmHg 30%
    11:00 +28°C° 0 mm 3 mps 762 mmHg 27%
    12:00 +29°C° 0 mm 3 mps 761 mmHg 24%
    13:00 +30°C° 0 mm 3 mps 761 mmHg 23%
    14:00 +30°C° 0 mm 3 mps 760 mmHg 22%
    15:00 +32°C° 0 mm 4 mps 759 mmHg 21%
    16:00 +29°C° 0 mm 3 mps 759 mmHg 24%
    17:00 +27°C° 0 mm 2 mps 759 mmHg 27%
    18:00 +26°C° 0 mm 2 mps 759 mmHg 30%
    19:00 +25°C° 0 mm 2 mps 760 mmHg 32%
    20:00 +24°C° 0 mm 1 mps 760 mmHg 34%
    21:00 +23°C° 0 mm 1 mps 761 mmHg 36%
    22:00 +22°C° 0 mm 1 mps 760 mmHg 37%
    23:00 +22°C° 0 mm 1 mps 760 mmHg 38%
    Mostrar más